Location: Bakhuizen
(52.8696°N, 5.4575°E)
Time: 04:34:12
(UTC+00:00)

Cosmos 1782 Rocket - Pass Details

Date: 11 May 2021
Orbit: 606 x 633 km, 82.5° (Epoch: 14 June)

Event Time Altitude Azimuth Distance (km) Brightness Sun altitude
Rises 23:43:29 0° 345° (NNW) 2,936 8.4 -19.0°
Reaches altitude 10° 23:45:47 10° 340° (NNW) 2,020 7.2 -19.0°
Maximum altitude 23:50:06 50° 266° (W) 798 4.0 -18.9°
Enters shadow 23:51:23 38° 217° (SW) 966 4.1 -18.9°
